This is the latest recevied weather packets stored in our database for station/object KO4ZGL-13. If no packets are shown the sender has not sent any weather packets the latest 10 day(s).
| Time | Temp. | Humidity | Pressure | Rain* | Wind** | Luminosity | Snow |
|---|---|---|---|---|---|---|---|
| 1788650277 | 30° C | 87% | 1011.9 hPa | 0 mm | - | 1 W/m² | - |
| 1788649971 | 30° C | 86% | 1011.7 hPa | 0 mm | - | 4 W/m² | - |
| 1788649663 | 30.56° C | 84% | 1011.4 hPa | 0 mm | - | 10 W/m² | - |
| 1788649360 | 30.56° C | 83% | 1011.4 hPa | 0 mm | - | 14 W/m² | - |
| 1788649077 | 30.56° C | 82% | 1011.2 hPa | 0 mm | - | 19 W/m² | - |
| 1788648755 | 31.11° C | 82% | 1011.1 hPa | 0 mm | - | 23 W/m² | - |
| 1788648454 | 31.11° C | 80% | 1011 hPa | 0 mm | - | 29 W/m² | - |
| 1788648150 | 31.67° C | 79% | 1010.8 hPa | 0 mm | - | 33 W/m² | - |
| 1788647846 | 31.67° C | 79% | 1010.8 hPa | 0 mm | - | 37 W/m² | - |
| 1788647543 | 31.67° C | 77% | 1011 hPa | 0 mm | - | 37 W/m² | - |
| 1788647238 | 32.22° C | 78% | 1010.9 hPa | 0 mm | - | 38 W/m² | - |
| 1788646946 | 32.22° C | 77% | 1010.9 hPa | 0 mm | - | 42 W/m² | - |
| 1788646633 | 32.78° C | 75% | 1010.7 hPa | 0 mm | - | 43 W/m² | - |
| 1788646330 | 33.33° C | 75% | 1010.6 hPa | 0 mm | - | 47 W/m² | - |
| 1788646025 | 33.89° C | 72% | 1010.6 hPa | 0 mm | - | 49 W/m² | - |
| 1788645721 | 33.89° C | 72% | 1010.5 hPa | 0 mm | - | 116 W/m² | - |
| 1788645420 | 34.44° C | 70% | 1010.5 hPa | 0 mm | - | 94 W/m² | - |
| 1788645116 | 35.56° C | 68% | 1010.3 hPa | 0 mm | - | 69 W/m² | - |
| 1788644812 | 36.11° C | 66% | 1010.3 hPa | 0 mm | - | 209 W/m² | - |
| 1788644507 | 36.11° C | 62% | 1010.3 hPa | 0 mm | - | 231 W/m² | - |
| 1788644202 | 36.11° C | 65% | 1010.3 hPa | 0 mm | - | 237 W/m² | - |
| 1788643898 | 36.11° C | 62% | 1010.2 hPa | 0 mm | - | 190 W/m² | - |
| 1788643592 | 36.11° C | 63% | 1010.6 hPa | 0 mm | - | 288 W/m² | - |
| 1788643287 | 35.56° C | 64% | 1010.3 hPa | 0 mm | - | 294 W/m² | - |
| 1788642981 | 36.11° C | 67% | 1010.3 hPa | 0 mm | - | 301 W/m² | - |
* Rain latest hour (hover to see other rain measurements)
** Current wind speed in m/s (hover to see current wind gust speed)